Location: Unspecified
(0.0000°N, 0.0000°E)
Time: 00:29:56
(UTC+00:00)

Transit 2A - All Passes

Search period start: 13 February 2016 00:00
Search period end: 23 February 2016 00:00
Orbit: 599 x 961 km, 66.7° (Epoch: 12 February)

Date Brightness Start Highest point End Pass type
(mag) Time Alt. Az. Time Alt. Az. Time Alt. Az.
13 Feb - 06:24:35 10° SSW 06:29:12 87° ESE 06:33:32 10° NNE daylight
13 Feb - 17:15:38 10° NNE 17:19:58 20° ENE 17:24:27 10° ESE daylight
13 Feb - 18:57:26 10° NW 19:02:56 36° WSW 19:08:41 10° S visible
14 Feb - 05:50:55 10° S 05:55:19 46° ESE 05:59:28 10° NE visible
14 Feb - 16:43:45 10° NE 16:46:06 12° ENE 16:48:28 10° E daylight
14 Feb - 18:23:06 10° NNW 18:29:01 57° WSW 18:35:15 10° S daylight
15 Feb - 05:17:37 10° SSE 05:21:24 25° ESE 05:25:01 10° NE visible
15 Feb - 07:02:18 10° W 07:04:13 13° WNW 07:06:06 10° NW daylight
15 Feb - 17:49:04 10° NNW 17:55:08 89° WSW 18:01:31 10° SSE daylight
16 Feb - 04:45:03 10° SE 04:47:28 14° ESE 04:49:49 10° E visible
16 Feb - 06:26:50 10° WSW 06:30:22 23° WNW 06:33:48 10° NNW daylight
16 Feb - 17:15:20 10° N 17:21:15 59° ENE 17:27:29 10° SSE daylight
16 Feb - 19:02:00 10° W 19:04:25 12° WSW 19:06:52 10° SW visible
17 Feb - 05:52:16 10° SW 05:56:32 41° WNW 06:00:36 10° N daylight
17 Feb - 16:41:53 10° N 16:47:24 37° ENE 16:53:09 10° SE daylight
17 Feb - 18:26:03 10° WNW 18:30:28 20° WSW 18:35:00 10° SSW daylight
18 Feb - 05:18:08 10° SSW 05:22:41 80° WNW 05:26:59 10° NNE visible
18 Feb - 16:08:50 10° NNE 16:13:32 23° ENE 16:18:24 10° ESE daylight
18 Feb - 17:51:09 10° NW 17:56:32 32° WSW 18:02:06 10° S daylight
19 Feb - 04:44:22 10° S 04:48:48 54° ESE 04:53:02 10° NNE visible
19 Feb - 15:36:31 10° NE 15:39:40 14° ENE 15:42:52 10° ESE daylight
19 Feb - 17:16:43 10° NW 17:22:36 50° WSW 17:28:45 10° S daylight
20 Feb - 04:10:57 10° S 04:14:54 29° ESE 04:18:40 10° NE visible
20 Feb - 05:56:54 10° W 05:57:43 10° WNW 05:58:31 10° WNW daylight
20 Feb - 16:42:37 10° NNW 16:48:43 80° WSW 16:55:06 10° SSE daylight
21 Feb - 03:38:08 10° SSE 03:40:59 16° ESE 03:43:44 10° ENE visible
21 Feb - 05:20:39 10° WSW 05:23:51 19° WNW 05:26:59 10° NNW visible
21 Feb - 16:08:48 10° N 16:14:50 66° ENE 16:21:09 10° SSE daylight
21 Feb - 17:56:45 10° W 17:58:01 11° WSW 17:59:17 10° WSW daylight
22 Feb - 04:45:55 10° SW 04:50:00 35° WNW 04:53:56 10° N visible
22 Feb - 15:35:16 10° N 15:40:57 42° ENE 15:46:53 10° SE daylight
22 Feb - 17:20:00 10° WNW 17:24:03 18° WSW 17:28:11 10° SSW daylight
